Regional Weather Roundup
Issued by NWS

Home | Current Version | Previous Version | Text Only | Print | Product List | Glossary Off
Versions: 1 2 3 4 5 6 7 8 9 10 11 12 13 14 15 16 17 18 19 20 21 22 23 24 25 26 27 28 29 30 31 32 33 34 35 36 37 38 39 40 41 42 43 44 45 46 47 48 49 50

000
ASUS45 KABQ 291110
RWRNM
WEATHER ROUNDUP FOR NEW MEXICO
NATIONAL WEATHER SERVICE ALBUQUERQUE NM
500 AM MDT SUN MAR 29 2015

NOTE: "FAIR" MEANS FEW OR NO CLOUDS BELOW 12,000 FEET AGL WITH NO
       SIGNIFICANT WEATHER OR OBSTRUCTIONS TO VISION.

      THIS PRODUCT IS RELEASED AS TWO VERSIONS.  ONE VERSION NEAR
      THE TOP OF THE HOUR CONTAINING PRELIMINARY DATA FROM ALBUQUERQUE
      AND OTHER STATIONS.  A FINAL VERSION WITH ADDITIONAL DATA IS
      ISSUED ABOUT 10 MINUTES AFTER THE HOUR.

NMZ501-503-504-510>518-291200-
NORTHWEST PLATEAU/NORTHCENTRAL MOUNTAINS

CITY           SKY/WX    TMP DP  RH WIND       PRES   REMARKS
FARMINGTON     CLEAR     36  18  48 N9        30.17R WCI  29
LOS ALAMOS     CLEAR     53  13  19 CALM      30.25S
SANTA FE       CLEAR     42  17  36 E5        30.20R
TAOS           CLEAR     32  16  51 NW6       30.24R WCI  26
ANGEL FIRE     FAIR      34  21  58 S3        30.26S

$$
NMZ402-403-502-505>509-291200-
WESTCENTRAL MOUNTAINS/SOUTHWEST MOUNTAINS

CITY           SKY/WX    TMP DP  RH WIND       PRES   REMARKS
GALLUP         CLEAR     33  12  41 NE5       30.27S WCI  29
GRANTS         CLEAR     40  15  35 CALM      30.27S
SILVER CITY    CLEAR     45  12  26 NW12      30.22S

$$
NMZ407-409-411-412-291200-
SOUTHERN DESERTS

CITY           SKY/WX    TMP DP  RH WIND       PRES   REMARKS
LORDSBURG      FAIR      50  14  23 NW8       30.15F
DEMING         CLEAR     49  14  24 SW7       30.15R
LAS CRUCES     PTCLDY    51   4  14 NW3       30.15R
ALAMOGORDO     PTCLDY    55   9  15 N3        30.12R
T OR C         CLEAR     59   3  10 NW13      30.16R

$$
NMZ519>523-291200-
CENTRAL VALLEYS/CENTRAL HIGHLANDS

CITY           SKY/WX    TMP DP  RH WIND       PRES   REMARKS
ALBUQUERQUE    CLEAR     48  14  25 SE8       30.19R
DOUBLE EAGLE   CLEAR     43  15  31 W9        30.20R
MORIARTY ARPT  FAIR      47  11  23 W9        30.21R
CLINES CORNERS CLEAR     45  15  30 W18       30.20R
BELEN          FAIR      53  13  20 W8        30.18S
SOCORRO        FAIR      68  11  11 W15G25    30.14R

$$
NMZ524>526-539-540-291200-
SOUTHCENTRAL MOUNTAINS

CITY           SKY/WX    TMP DP  RH WIND       PRES   REMARKS
RUIDOSO        CLEAR     54   7  15 NW10      30.26S

$$
NMZ527>531-291200-
NORTHEAST HIGHLANDS/NORTHEAST PLAINS

CITY           SKY/WX    TMP DP  RH WIND       PRES   REMARKS
LAS VEGAS      CLEAR     48  18  30 N12       30.17R
RATON          CLEAR     38  21  50 NE10      30.12R WCI  31
CLAYTON        CLEAR     59  22  24 NW12      30.00R

$$
NMZ532>537-291200-
EASTCENTRAL PLAINS

CITY           SKY/WX    TMP DP  RH WIND       PRES   REMARKS
TUCUMCARI      CLEAR     54  23  30 W6        30.00R
CANNON AFB     CLEAR     54  24  31 W16       30.01S
CLOVIS AIRPORT CLEAR     45  27  49 W9        30.00S

$$
NMZ028-029-538-291200-
SOUTHEAST PLAINS

CITY           SKY/WX    TMP DP  RH WIND       PRES   REMARKS
ROSWELL        PTCLDY    58  22  24 W13       30.03R
ARTESIA        PTCLDY    48  21  34 NW8       30.03R
CARLSBAD       CLEAR     54  29  38 N8        29.99S
HOBBS          CLEAR     50  36  57 SW7       30.02S


$$


USA.gov is the U.S. government's official web portal to all federal, state and local government web resources and services.